Delta Virtual Airport Information Service

San Francisco International Airport

ICAO: KSFO Country: United States
Latitude: 37.619 Longitude: -122.374
Latest Arrival : DAL1327 (1A) (KLAX-KSFO) Latest Departure : UAL1 (1) (KSFO-WSSS)


WX CaptureLIVE
Data provided by noaa.gov | Fetched at 13:20:18

METAR : KSFO 281756Z 02003KT 10SM CLR 18/15 A3016 RMK AO2 SLP213 T01780150 10178 20139 58004

TAF : KSFO 281737Z 2818/2924 VRB03KT P6SM FEW010 FM281900 06004KT P6SM SKC FM282300 31010KT P6SM SKC FM290400 29008KT P6SM FEW020 FM290800 29005KT P6SM BKN015 FM291300 28004KT 4SM BR BKN008 FM291800 28004KT P6SM FEW010


Runway Data for KSFO
Data provided by openaviationdata.com

Runway ID Mag Var Hdg Length Elevation Surface ILS Freq ILS Id ILS Slope
01L 15 12° 7506 ft 13 ft Asphalt -- -- --
01R 15 12° 8654 ft 13 ft Asphalt -- -- --
10L 15 102° 11861 ft 13 ft Asphalt -- -- --
10R 15 102° 10594 ft 13 ft Asphalt -- -- --
19L 15 192° 8654 ft 13 ft Asphalt 108.9 ISIA 2
19R 15 192° 7506 ft 13 ft Asphalt -- -- --
28L 15 282° 10594 ft 13 ft Asphalt 109.55 ISFO 3
28R 15 282° 11861 ft 13 ft Asphalt 111.7 IGWQ 3

San Francisco International Airport, United States
Use only for reference purposes



Not for navigational purposes.